Regional Weather Roundup
Issued by NWS Sterling, VA

Home | Current Version | Previous Version | Graphics & Text | Print | Product List | Glossary On
Versions: 1 2 3 4 5 6 7 8 9 10 11 12 13 14 15 16 17 18 19 20 21 22 23 24 25 26 27 28 29 30 31 32 33 34 35 36 37 38 39 40 41 42 43 44 45 46 47 48 49 50
017
ASUS41 KLWX 190711
RWRLWX

REGIONAL WEATHER ROUNDUP
NATIONAL WEATHER SERVICE BALTIMORE MD/WASHINGTON DC
300 AM EDT THU APR 19 2018

Note: "FAIR" indicates few or no clouds below 12,000 feet
with no significant weather and/or obstructions to visibility.
 TC=TEMPERATURE CELSIUS

 * =Non NWS site. Station does not report precipitation (e.g. rain,
    snow, etc.), thunder, or fog.

DCZ001-MDZ009-015-VAZ040>042-051-053>054-190800-
WASHINGTON METRO

CITY           SKY/WX    TMP DP  RH WIND       PRES   REMARKS
WASHINGTON NAT MOCLDY    50  41  71 E3        29.62F
DULLES         FAIR      45  41  86 CALM      29.61F
ANDREWS AFB    FAIR      45  41  85 CALM      29.60F
FT BELVOIR     CLOUDY    45  41  86 CALM      29.61F
QUANTICO       CLOUDY    51  46  83 CALM      29.63F
COLLEGE PARK*  FAIR      44  39  84 CALM      29.61F
LEESBURG*      MOCLDY    46  41  81 N8        29.66R
MANASSAS*      FAIR      42  40  92 CALM      29.61F
GAITHERSBURG*  FAIR      46  38  73 CALM      29.62F

$$

MDZ006>007-011-014-190800-
BALTIMORE METRO

CITY           SKY/WX    TMP DP  RH WIND       PRES   REMARKS
BWI AIRPORT    FAIR      48  42  80 NE5       29.62F
MD SCIENCE CTR   N/A     51  39  63 MISG      29.64F
MARTIN STATE   MOCLDY    46  45  93 CALM      29.65F
ANNAPOLIS      MOCLDY    52  46  80 CALM      29.61F
FORT MEADE*    FAIR      41  37  87 CALM      29.64F

$$

MDZ012-015-019>023-190800-
MARYLAND EASTERN SHORE

CITY           SKY/WX    TMP DP  RH WIND       PRES   REMARKS
OCEAN CITY     FAIR      49  47  93 VRB7      29.60F
SALISBURY      FAIR      50  47  89 SE7       29.58F
BAY BRIDGE AP* FAIR      48  41  76 NE5       29.62F
CAMBRIDGE*     PTCLDY    45  41  87 N5        29.60S
EASTON*        FAIR      46  40  80 NE5       29.64F

$$

MDZ017>025-190800-
SOUTHERN MARYLAND

CITY           SKY/WX    TMP DP  RH WIND       PRES   REMARKS
PATUXENT RIVER FAIR      52  48  86 CALM      29.58F
ST INIGOES     FAIR      48  46  93 CALM      29.57F
LEONARDTOWN*   FAIR      45  43  93 CALM      29.60F

$$

MDZ003>005-190800-
NORTH CENTRAL MARYLAND

CITY           SKY/WX    TMP DP  RH WIND       PRES   REMARKS
FREDERICK*     MOCLDY    45  37  76 N5        29.70R
HAGERSTOWN APT RAIN      47  41  80 N13       29.68R
WESTMINSTER*   MOCLDY    48  39  71 N6        29.67R

$$

MDZ501>502-190800-
WESTERN MARYLAND

CITY           SKY/WX    TMP DP  RH WIND       PRES   REMARKS
OAKLAND*       CLOUDY    39  39 100 NW6       29.70R VSB<1/4 WCI  35
CUMBERLAND*    MOCLDY    46  45  93 E3        29.75R

$$

VAZ025>031-190800-
SHENANDOAH VALLEY

CITY           SKY/WX    TMP DP  RH WIND       PRES   REMARKS
WINCHESTER*    CLOUDY    50  37  62 N5        29.67R
FRONT ROYAL*   CLOUDY    50  41  71 N7        29.62R
LURAY*         MOCLDY    45  43  93 CALM      29.60S
NEW MARKET*    CLOUDY    44  42  92 CALM      29.61R
STAUNTON*      FAIR      43  39  85 CALM      29.62F
WAYNESBORO*    FAIR      47  41  78 CALM      29.60F

$$

WVZ021-048>050-054>055-190800-
EASTERN WEST VIRGINIA PANHANDLE

CITY           SKY/WX    TMP DP  RH WIND       PRES   REMARKS
MARTINSBURG    CLOUDY    50  41  71 N9        29.66R
PETERSBURG*    LGT RAIN  49  43  80 CALM      29.71R

$$

VAZ036>039-050-190800-
CENTRAL FOOTHILLS

CITY           SKY/WX    TMP DP  RH WIND       PRES   REMARKS
CHARLOTTESVILL FAIR      51  40  65 CALM      29.60F
CULPEPER*      FAIR      43  39  87 CALM      29.61F
ORANGE*        FAIR      43  39  87 CALM      29.62F
GORDONSVILLE*  FAIR      45  43  95 CALM      29.61F
WARRENTON*     FAIR      43  38  84 CALM      29.60F

$$

VAZ055>057-190800-
NORTH AND CENTRAL PIEDMONT

CITY           SKY/WX    TMP DP  RH WIND       PRES   REMARKS
FREDERICKSBRG* CLOUDY    49  46  92 CALM      29.61S
STAFFORD*      MOCLDY    47  47 100 CALM      29.65S

$$

NCZ024-NYZ072-PAZ021-071-VAZ022-071-190800-
OTHER REGIONAL OBSERVATIONS

CITY           SKY/WX    TMP DP  RH WIND       PRES   REMARKS
NEW YORK CITY  LGT RAIN  45  33  63 SE8       29.76S
PHILADELPHIA   MOCLDY    48  38  68 NE6       29.66F
PITTSBURGH     CLOUDY    42  40  92 NW5       29.71F
ROANOKE        FAIR      71  47  42 W17G26    29.66F
RICHMOND       FAIR      47  47 100 CALM      29.58F
RALEIGH        FAIR      69  47  45 W13       29.70F

$$

ANZ530>537-190800-
MARINE OBSERVATIONS

STATION/POSITION TIME  TEMP    WIND        PRES
                       AIR SEA DIR/SP/G
                 (UTC) (F)     (DEG/KT/KT) (MB)
THOMAS PT LIGHT  0700   49 50   40/  5/  5 1003.8F
BALT KEY BRIDGE  0648   49      40/  4/  5 1003.4F
COVE POINT       0648   50     150/  3/  6 1002.6F
LEWISETTA        0648   50 55     CALM     1001.2F
SOLOMONS ISLAND  0648   51 52  110/  3/  4 1001.5F
PINEY POINT      0648          140/  3/  3   N/A

$$





USA.gov is the U.S. government's official web portal to all federal, state and local government web resources and services.